Simultaneous Nadir Overpasses (SNOs) Predictions

Prediction of SNOs between GOES-16 and NOAA-20 Satellite Orbit:

Table of predicted SNOs for the next 14.0 days since TLE Epoch: 6/24/2023
Index Date Time (GOES-16) GOES-16 Lat,Lon NOAA-20 Lat,Lon Distance(km) Time Diff (sec)
1 06/24/2023 06:36:56 -0.02, -75.19 0.60, -78.00 319.23 80
2 06/25/2023 06:20:51 -0.02, -75.20 -0.39, -73.46 197.38 80
3 06/26/2023 18:40:09 0.02, -75.21 -0.81, -78.77 406.78 80
4 06/27/2023 18:24:05 0.02, -75.22 0.25, -74.26 110.14 80
5 06/29/2023 06:43:13 -0.03, -75.23 0.93, -79.53 489.74 80
6 06/30/2023 06:27:09 -0.03, -75.24 -0.06, -75.00 27.24 80
7 07/02/2023 18:27:43 0.03, -75.26 -0.06, -75.79 59.88 80
8 07/03/2023 18:11:38 0.03, -75.27 0.93, -71.26 457.20 80
9 07/05/2023 06:30:47 -0.04, -75.29 0.24, -76.54 142.32 80
10 07/06/2023 06:14:42 -0.03, -75.30 -0.76, -72.00 375.17 80
11 07/07/2023 18:33:59 0.04, -75.32 -0.41, -77.32 227.50 80
